Flag for Greece Weather past 2 weeks in Glyfada, Greece

Now
77 °F

Clear.


Feels Like: 79 °F
Forecast: 74 / 93 °F
Wind: 2 mph from Southwest

Location: Eleftherios Venizelos International Airport

Current Time: Jul 31, 2014 at 1:08:06 AM

Latest Report: Jul 31, 2014 at 12:20 AM


Visibility: 10 mi

Pressure: 29.83 "Hg

Humidity: 79%

Dew point: 70 °F

Location of GlyfadaLocation

Historic Weather in Glyfada — Graph

°F

Glyfada temperature yesterday

Maximum temperature yesterday: 93 °F (at 3:20 PM)
Minimum temperature yesterday: 70 °F (at 6:50 AM)
Average temperature yesterday: 83 °F

Past Weeks' High & Low Weather Summary

 TemperatureHumidityPressure
High95 °F (Jul 28, 1:50 PM)89% (Jul 19, 10:50 PM)29.92 "Hg (Jul 19, 10:50 PM)
Low64 °F (Jul 17, 3:20 AM)26% (Jul 28, 1:50 PM)29.68 "Hg (Jul 22, 7:20 PM)
Average80 °F54%29.84 "Hg
* Reported Jul 15 11:20 PM — Jul 30 11:50 PM, Glyfada, Weather by CustomWeather, © 2014

Note: Actual official high and low records may vary slightly from our data, if they occured in-between our weather recording intervals... More about our weather records

Advertising

Glyfada weather history for previous 24 hours

 ConditionsComfort  
Time TempWeatherWind HumidityBarometerVisibility
11:50 PM
Jul 30
77 °FClear.5 mph79%29.83 "Hg10 mi
11:20 PM79 °FClear.No wind74%29.83 "Hg10 mi
10:50 PM81 °FClear.No wind70%29.83 "Hg10 mi
10:20 PM81 °FClear.3 mph70%29.83 "Hg10 mi
9:50 PM82 °FPassing clouds.5 mph66%29.83 "HgN/A
9:20 PM82 °FSunny.9 mph66%29.83 "Hg10 mi
8:50 PM82 °FSunny.9 mph66%29.83 "Hg10 mi
8:20 PM84 °FPassing clouds.6 mph55%29.83 "HgN/A
7:50 PM86 °FPassing clouds.5 mph55%29.83 "HgN/A
7:20 PM88 °FPassing clouds.5 mph55%29.83 "HgN/A
6:50 PM90 °FPassing clouds.8 mph49%29.83 "HgN/A
6:20 PM91 °FPassing clouds.8 mph41%29.83 "HgN/A
5:50 PM91 °FPassing clouds.7 mph41%29.83 "HgN/A
5:20 PM91 °FPassing clouds.9 mph41%29.83 "HgN/A
4:50 PM91 °FPassing clouds.8 mph41%29.83 "HgN/A
4:20 PM93 °FPassing clouds.9 mph39%29.83 "HgN/A
3:50 PM93 °FPassing clouds.10 mph36%29.83 "HgN/A
3:20 PM93 °FPassing clouds.10 mph39%29.83 "HgN/A
2:50 PM91 °FPassing clouds.8 mph41%29.83 "HgN/A
2:20 PM91 °FPassing clouds.12 mph41%29.86 "HgN/A
1:50 PM91 °FPassing clouds.12 mph41%29.86 "HgN/A
1:20 PM91 °FPassing clouds.14 mph46%29.86 "HgN/A
12:50 PM91 °FPassing clouds.13 mph41%29.86 "HgN/A
12:20 PM90 °FPassing clouds.10 mph46%29.86 "HgN/A
11:50 AM90 °FPassing clouds.9 mph43%29.86 "HgN/A
11:20 AM88 °FPassing clouds.8 mph49%29.86 "HgN/A
10:50 AM86 °FSunny.13 mph52%29.86 "Hg10 mi
10:20 AM86 °FSunny.14 mph46%29.86 "Hg10 mi
9:50 AM86 °FSunny.15 mph46%29.83 "Hg10 mi
9:20 AM84 °FSunny.9 mph55%29.83 "Hg10 mi
8:50 AM82 °FSunny.6 mph55%29.86 "Hg10 mi
8:20 AM79 °FSunny.No wind70%29.83 "Hg10 mi
7:50 AM77 °FSunny.No wind74%29.83 "Hg10 mi
7:20 AM72 °FClear.3 mph83%29.83 "Hg10 mi
6:50 AM70 °FClear.2 mph83%29.80 "Hg10 mi
6:20 AM72 °FClear.3 mph83%29.80 "Hg10 mi
5:50 AM72 °FClear.2 mph83%29.80 "Hg10 mi
5:20 AM72 °FClear.3 mph78%29.80 "Hg10 mi
4:50 AM75 °FClear.1 mph74%29.80 "Hg10 mi
4:20 AM73 °FClear.1 mph74%29.80 "Hg10 mi
3:50 AM77 °FClear.5 mph69%29.83 "Hg10 mi
3:20 AM75 °FClear.7 mph74%29.83 "Hg10 mi
2:50 AM77 °FClear.No wind69%29.80 "Hg10 mi
2:20 AM77 °FClear.1 mph69%29.80 "Hg10 mi
1:50 AM77 °FClear.1 mph69%29.83 "Hg10 mi
1:20 AM79 °FClear.No wind65%29.83 "Hg10 mi
Weather by CustomWeather, © 2014

See weather overviewHow to use our weather pages